Regional Weather Roundup
Issued by NWS Austin/San Antonio, TX

Home | Current Version | Previous Version | Text Only | Print | Product List | Glossary On
Versions: 1 2 3 4 5 6 7 8 9 10 11 12 13 14 15 16 17 18 19 20 21 22 23 24 25 26 27 28 29 30 31 32 33 34 35 36 37 38 39 40 41 42 43 44 45 46 47 48 49 50
944
ASUS44 KEWX 210302
RWREWX
SOUTH TEXAS REGIONAL WEATHER ROUNDUP
NATIONAL WEATHER SERVICE AUSTIN/SAN ANTONIO TX
1000 PM CDT TUE AUG 20 2019

NOTE: "FAIR" INDICATED FEW OR NO CLOUDS BELOW 12,000 FEET WITH NO
SIGNIFICANT WEATHER AND/OR OBSTRUCTIONS TO VISIBILITY.

* - THESE STATIONS ARE NOT NWS OR FAA STATIONS...AND ARE NOT SUBJECT
    TO NWS AND FAA QUALITY CONTROL.

TXZ171-172-183>190-210400-
TEXAS HILL COUNTRY AND EDWARDS PLATEAU

CITY           SKY/WX    TMP DP  RH WIND       PRES   REMARKS
JUNCTION       CLEAR     90  63  40 SE12      30.03R HX  91
*LLANO         CLEAR     90  63  40 SE3       30.02R HX  90
BURNET         CLEAR     88  65  46 S7G17     30.03R HX  90
*HORSESHOE BAY CLEAR     88  64  45 S9G16     30.00R
*KERRVILLE     CLEAR     83  61  47 CALM      30.03R
*FREDERICKSBRG CLEAR     83  60  44 CALM      30.03R
*ROCKSPRINGS   CLEAR     84  61  45 SE6       30.10R
*BOERNE        CLEAR     82  59  44 SE3       30.03R
*CASTROVILLE   CLEAR     89  58  35 SE9       29.99R
HONDO          CLEAR     89  60  37 SE13      29.98R
*UVALDE        CLEAR     85  59  41 E6        29.98R
DEL RIO        CLEAR     93  59  31 E9        29.93R HX  92
LAUGHLIN AFB   CLEAR     88  60  38 E8        29.94R
SPOFFORD       CLEAR     87  58  37 E7        29.89R
*EAGLE PASS    CLEAR     90  57  33 E6        29.94R
CARRIZO SPRGS  CLEAR     91  68  46 SE14G21   29.92R HX  95
$$

TXZ173-191>194-202-209-217>225-228-210400-
CENTRAL AND SOUTH CENTRAL TEXAS

CITY           SKY/WX    TMP DP  RH WIND       PRES   REMARKS
GEORGETOWN     CLEAR     88  69  53 SE9       30.01R HX  92
AUSTIN/BERGSTM PTCLDY    86  71  60 SE8       29.98R HX  91
AUSTIN/MABRY   CLEAR     87  68  52 VRB6      30.00R HX  90
*AUSTIN/EXEC   PTCLDY    84  68  58 S7        30.00R
*LAGO VISTA    CLEAR     85  68  57 SE9       30.03R
SAN MARCOS     CLEAR     86  70  58 S12       30.00R HX  90
NEW BRAUNFELS  CLEAR     87  65  47 SE13      29.98R
RANDOLPH AFB   CLEAR     87  69  55 SE12      30.00R HX  90
SEGUIN         CLEAR     84  69  59 SE8       30.04R
KELLY FIELD    CLEAR     89  63  41 SE18      29.97R HX  90
SAN ANTONIO    PTCLDY    88  64  44 SE20      29.99R
STINSON FIELD  CLEAR     90  64  42 SE16G22   29.96R HX  91
PLEASANTON     CLEAR     86  66  51 SE14G21   29.98R
*LA GRANGE     CLEAR     85  74  68 S6        29.97R HX  93
*GIDDINGS      CLEAR     88  75  65 S6        30.00R HX  97
*GONZALES      CLEAR     87  70  56 S12       29.99R HX  91
$$

TXZ163>164-176>182-195>201-210>213-226-227-235-210400-
SOUTHEAST TEXAS

CITY           SKY/WX    TMP DP  RH WIND       PRES   REMARKS
COLLEGE STN    CLEAR     84  73  69 SE7       29.99R HX  90
*BRYAN         CLEAR     85  73  68 S6        30.01R HX  92
*CALDWELL      CLEAR     84  70  63 S7        29.99R
*CROCKETT      CLEAR     81  73  78 CALM      30.04R
*BRENHAM       CLEAR     84  73  67 S5        29.99S HX  90
HUNTSVILLE     CLEAR     78  75  90 S3        30.01R
CONROE         CLEAR     80  73  79 CALM      30.01R
HOUSTON BUSH   MOCLDY    83  73  72 S5        30.00R
HOUSTON HOBBY  MOCLDY    83  74  74 S6        29.99R
*HOUSTON SW AP FAIR      79  76  91 CALM      30.00R
PEARLAND       FAIR      82  75  79 SE3       30.01R
HOUSTON HOOKS  FAIR      81  71  71 CALM      30.00R
ELLINGTON FLD  MOCLDY    81  73  78 S3        29.98S
SUGAR LAND     FAIR      81  77  88 S7        29.99R
*HOUSTON EXEC  FAIR      82  75  78 S7        30.00R
*CLEVELAND MUN FAIR      78  78 100 CALM      30.02R
*WHARTON       CLEAR     79  73  82 S3        30.00S
*COLUMBUS      FAIR      82  71  69 SE3       30.00R
*EAGLE LAKE    CLEAR     82  77  85 S6        29.99S
$$

TXZ214>216-236>238-210400-
THE UPPER TEXAS COAST

CITY           SKY/WX    TMP DP  RH WIND       PRES   REMARKS
*ORANGE        FAIR      80  80 100 CALM      30.04R
PORT ARTHUR    FAIR      80  76  87 CALM      30.01R
GALVESTON      FAIR      85  78  80 S10       30.01R HX  96
ANGLETON       FAIR      80  76  87 CALM      30.00R
*BAY CITY      CLEAR     81  78  89 SE5       29.99S
PALACIOS       CLEAR     86  74  67 S12       29.99S HX  94
$$

TXZ229>234-239>247-210400-
TEXAS COASTAL BEND AND RIO GRANDE PLAINS

CITY           SKY/WX    TMP DP  RH WIND       PRES   REMARKS
VICTORIA       CLEAR     83  73  72 S10       29.99S
*BEEVILLE      NOT AVBL
ROCKPORT       CLEAR     84  76  76 SE12      29.99R HX  93
*PORT ARANSAS  CLEAR     85  78  80 SE9       30.00S HX  97
*PORT LAVACA   CLEAR     83  76  81 S5        29.99S HX  91
*INGLESIDE     NOT AVBL
CORPUS CHRISTI PTCLDY    85  75  72 SE13      29.98R HX  93
CORPUS NAS     CLEAR     84  79  85 SE14      29.98R HX  96
*ROBSTOWN      CLEAR     84  74  72 SE12      29.99R HX  92
ALICE          CLEAR     84  74  71 SE9       29.98R HX  91
KINGSVILLE NAS PTCLDY    84  76  76 SE10      29.99R HX  93
COTULLA        PTCLDY    90  67  46 SE21G29   29.95R HX  93
LAREDO         CLEAR     90  71  53 SE22G30   29.94R HX  96
$$

TXZ248>255-210400-
DEEP SOUTH TEXAS

CITY           SKY/WX    TMP DP  RH WIND       PRES   REMARKS
BROWNSVILLE    FAIR      85  78  80 SE9       29.98R HX  96
PORT ISABEL    FAIR      84  76  76 SE13      29.97S HX  93
HARLINGEN      CLEAR     84  75  74 SE13      29.97R HX  92
*HEBBRONVILLE  CLEAR     85  67  55 SE7G16    30.00R
MCALLEN        CLEAR     87  73  62 SE13      29.97R HX  94
*WESLACO       MOCLDY    85  74  69 SE7       29.97S HX  92
FALFURRIAS     CLEAR     86  73  64 SE7       29.98R HX  92
EDINBURG       FAIR      87  74  65 SE13      29.98R HX  94
*ZAPATA        FAIR      91  67  45 E12G23    29.96R HX  93
$$

TXZ213>215-236>238-242>244-246-247-251-254-255-210400-
CMAN STATIONS

STATION/POSITION TIME  TEMP    WIND        PRES    WAVE
                       AIR SEA DIR/SP/G            HT/PER
                 (UTC) (F)     (DEG/KT/KT) (MB)    (FT/S)
SABINE PASS      0224   81 89  190/  4/  5 1017.8
NORTH JETTY/GLS  0224   85 88  170/  9/ 12 1014.8
EAGLE POINT      0224   84 88  170/  9/ 10 1014.9
MORGANS POINT    0230          180/  8/ 10   N/A
PORT O`CONNOR    0224   85 88  150/ 13/ 16 1014.9
PORT ARANSAS     0200   85 87  110/ 10/ 12 1015.4
MALAQUITE BEACH  0224   83 86   90/ 11/ 12 1014.9
BAFFIN BAY       0224   84 90  100/ 11/ 15 1015.3
PORT ISABEL      0224   84 86  110/ 10/ 14 1015.5
$$




USA.gov is the U.S. government's official web portal to all federal, state and local government web resources and services.